Weather History for KPKV - August, 2014

Change the Weather History Date:

Saturday, August 30, 2014

  Actual Average (KVCT) Record (KVCT)
Temperature  
Mean Temperature 80 °F 83 °F  
Max Temperature 86 °F 94 °F 105 °F (2012)
Min Temperature 74 °F 73 °F 66 °F (1992)
Degree Days  
Heating Degree Days 0 0  
Month to date heating degree days 0  
Since 1 June heating degree days 0  
Since 1 July heating degree days 0  
Cooling Degree Days 15 18  
Month to date cooling degree days 586  
Year to date cooling degree days 2339  
Since 1 June cooling degree days 1680  
Growing Degree Days 30 (Base 50)    
Moisture  
Dew Point 74 °F    
Average Humidity 86    
Maximum Humidity 97    
Minimum Humidity 68    
Precipitation  
Precipitation 2.24 in 0.13 in 3.40 in (1953)
Month to date precipitation 2.72  
Year to date precipitation 26.74  
Snow  
Snow 0.00 in - - ()
Month to date snowfall  
Since 1 June snowfall  
Since 1 July snowfall  
Snow Depth -    
Sea Level Pressure  
Sea Level Pressure 29.91 in    
Wind  
Wind Speed 5 mph (SE)    
Max Wind Speed 15 mph    
Max Gust Speed 16 mph    
Visibility 10 miles    
Events Rain    
T = Trace of Precipitation, MM = Missing Value Source: NWS Daily Summary

Daily Weather History Graph

Daily Weather History Graph

Search for Another Location

Airport or City:

Trip Planner

Search our weather history database for the weather conditions in past years. The results will help you decide how hot, cold, wet, or windy it might be!

Date:

Astronomy

Aug. 30, 2014 Rise Set
Actual Time 7:03 AM CDT 7:50 PM CDT
Civil Twilight 6:39 AM CDT 8:14 PM CDT
Nautical Twilight 6:11 AM CDT 8:42 PM CDT
Astronomical Twilight 5:42 AM CDT 9:11 PM CDT
Moon 11:26 AM CDT (8/30) 10:52 PM CDT (8/30)
Length of Visible Light 13h 34m
Length of Day
12h 46m
Waxing Crescent, 23% of the Moon is Illuminated
Aug 30
Waxing Crescent
Sep 2
First Quarter
Sep 8
Full
Sep 15
Last Quarter
Sep 24
New

Hourly Weather History & Observations

Time (CDT) Temp. Heat Index Dew Point Humidity Pressure Visibility Wind Dir Wind Speed Gust Speed Precip Events Conditions
12:15 AM 78.8 °F - 75.2 °F 89% 29.89 in 10.0 mi East 5.8 mph - N/A   Scattered Clouds
12:35 AM 78.3 °F - 74.8 °F 89% 29.89 in 10.0 mi East 4.6 mph - N/A   Scattered Clouds
12:55 AM 77.7 °F - 74.8 °F 91% 29.90 in 10.0 mi East 4.6 mph - N/A   Scattered Clouds
1:15 AM 77.2 °F - 74.7 °F 92% 29.90 in 10.0 mi NNE 3.5 mph - N/A   Clear
1:35 AM 77.4 °F - 75.2 °F 93% 29.90 in 10.0 mi NE 6.9 mph - N/A   Mostly Cloudy
1:55 AM 77.0 °F - 74.5 °F 92% 29.89 in 10.0 mi NE 5.8 mph - N/A   Scattered Clouds
2:15 AM 76.6 °F - 74.3 °F 92% 29.90 in 10.0 mi NE 4.6 mph - N/A   Clear
2:35 AM 76.3 °F - 74.3 °F 94% 29.90 in 10.0 mi NE 4.6 mph - N/A   Clear
2:55 AM 76.1 °F - 74.3 °F 94% 29.90 in 10.0 mi NE 4.6 mph - N/A   Clear
3:15 AM 75.9 °F - 74.1 °F 94% 29.88 in 10.0 mi ENE 3.5 mph - N/A   Clear
3:35 AM 75.9 °F - 74.3 °F 95% 29.88 in 10.0 mi ENE 4.6 mph - N/A   Clear
3:55 AM 76.3 °F - 74.7 °F 95% 29.88 in 10.0 mi ESE 3.5 mph - N/A   Clear
4:10 AM 76.5 °F - 74.8 °F 95% 29.88 in 10.0 mi Calm Calm - N/A   Clear
4:55 AM 75.4 °F - 73.9 °F 95% 29.87 in 10.0 mi North 5.8 mph - N/A   Clear
5:15 AM 74.8 °F - 73.4 °F 95% 29.88 in 10.0 mi North 3.5 mph - N/A   Clear
5:35 AM 74.5 °F - 73.4 °F 96% 29.89 in 10.0 mi NNE 3.5 mph - N/A   Clear
6:15 AM 74.3 °F - 73.4 °F 97% 29.89 in 10.0 mi Calm Calm - N/A   Clear
6:35 AM 74.8 °F - 73.8 °F 96% 29.90 in 10.0 mi ESE 6.9 mph - N/A   Scattered Clouds
6:55 AM 76.1 °F - 74.7 °F 95% 29.90 in 10.0 mi South 6.9 mph - N/A   Mostly Cloudy
7:15 AM 75.2 °F - 73.0 °F 93% 29.90 in 10.0 mi SSW 6.9 mph - N/A   Scattered Clouds
7:35 AM 75.4 °F - 73.4 °F 94% 29.91 in 10.0 mi SSE 3.5 mph - N/A   Scattered Clouds
7:55 AM 75.6 °F - 73.4 °F 93% 29.91 in 10.0 mi Calm Calm - N/A   Clear
8:20 AM 76.1 °F - 73.8 °F 92% 29.92 in 10.0 mi NNW 4.6 mph - N/A   Clear
8:35 AM 76.5 °F - 74.1 °F 92% 29.92 in 10.0 mi Calm Calm - N/A   Clear
8:55 AM 77.2 °F - 74.1 °F 90% 29.93 in 10.0 mi Calm Calm - N/A   Clear
9:15 AM 77.9 °F - 74.1 °F 88% 29.93 in 10.0 mi Calm Calm - N/A   Clear
9:35 AM 79.0 °F - 74.8 °F 87% 29.93 in 10.0 mi Calm Calm - N/A   Mostly Cloudy
9:55 AM 79.7 °F - 74.8 °F 85% 29.93 in 10.0 mi WSW 5.8 mph - N/A   Mostly Cloudy
10:15 AM 80.8 °F 86.3 °F 74.7 °F 82% 29.93 in 10.0 mi West 5.8 mph - N/A   Scattered Clouds
10:35 AM 82.4 °F 89.0 °F 74.7 °F 77% 29.93 in 10.0 mi WNW 5.8 mph - N/A   Clear
10:55 AM 83.5 °F 90.9 °F 74.7 °F 75% 29.93 in 10.0 mi WNW 3.5 mph - N/A   Scattered Clouds
11:15 AM 84.6 °F 92.1 °F 74.3 °F 71% 29.93 in 10.0 mi West 5.8 mph - N/A   Mostly Cloudy
11:35 AM 85.3 °F 93.7 °F 74.8 °F 71% 29.93 in 10.0 mi SSW 5.8 mph - N/A   Overcast
11:55 AM 85.1 °F 92.9 °F 74.1 °F 70% 29.94 in 10.0 mi SW 5.8 mph - N/A   Mostly Cloudy
12:15 PM 86.4 °F 95.1 °F 74.5 °F 68% 29.94 in 10.0 mi SSW 6.9 mph - N/A   Overcast
12:35 PM 86.0 °F 94.2 °F 74.5 °F 68% 29.93 in 10.0 mi SSW 5.8 mph - N/A   Overcast
12:55 PM 85.5 °F 93.4 °F 74.1 °F 69% 29.93 in 10.0 mi South 3.5 mph - N/A   Overcast
1:15 PM 83.5 °F 91.2 °F 75.2 °F 76% 29.94 in 10.0 mi East 4.6 mph - N/A Rain Rain
1:35 PM 76.8 °F - 72.5 °F 86% 29.95 in 0.2 mi North 4.6 mph - 1.06 in Rain Heavy Rain
1:55 PM 76.1 °F - 71.8 °F 86% 29.94 in 0.5 mi WSW 3.5 mph - 2.09 in Rain Heavy Rain
2:15 PM 77.9 °F - 73.8 °F 87% 29.93 in 2.5 mi South 3.5 mph - 0.15 in Rain Rain
3:15 PM 83.3 °F 90.8 °F 75.2 °F 76% 29.90 in 10.0 mi SE 5.8 mph - N/A   Scattered Clouds
3:35 PM 82.8 °F 89.5 °F 74.5 °F 76% 29.89 in 10.0 mi ESE 9.2 mph - N/A   Clear
3:55 PM 83.3 °F 91.4 °F 75.7 °F 78% 29.89 in 10.0 mi ESE 11.5 mph - N/A   Clear
4:15 PM 82.6 °F 90.5 °F 76.1 °F 81% 29.89 in 10.0 mi SE 11.5 mph - N/A   Clear
4:35 PM 82.9 °F 91.5 °F 76.6 °F 81% 29.89 in 10.0 mi SE 10.4 mph - N/A   Clear
4:55 PM 83.5 °F 92.2 °F 76.5 °F 79% 29.89 in 10.0 mi ESE 12.7 mph - N/A   Clear
5:15 PM 83.5 °F 92.2 °F 76.3 °F 79% 29.90 in 10.0 mi SE 13.8 mph - N/A   Scattered Clouds
5:35 PM 82.0 °F 89.1 °F 75.7 °F 81% 29.90 in 10.0 mi SE 15.0 mph - N/A   Mostly Cloudy
5:55 PM 81.9 °F 88.7 °F 75.4 °F 81% 29.91 in 10.0 mi SE 11.5 mph - N/A   Mostly Cloudy
6:15 PM 82.2 °F 89.1 °F 75.0 °F 79% 29.92 in 10.0 mi SE 11.5 mph 16.1 mph N/A   Scattered Clouds
6:35 PM 82.6 °F 89.7 °F 75.0 °F 78% 29.92 in 10.0 mi SE 15.0 mph - N/A   Scattered Clouds
6:55 PM 82.6 °F 89.9 °F 75.4 °F 79% 29.91 in 10.0 mi SE 13.8 mph - N/A   Clear
7:15 PM 81.5 °F 87.6 °F 74.7 °F 80% 29.91 in 10.0 mi SE 10.4 mph - N/A   Clear
7:35 PM 80.6 °F 86.0 °F 74.8 °F 83% 29.91 in 10.0 mi SE 9.2 mph - N/A   Scattered Clouds
7:55 PM 79.7 °F - 74.5 °F 84% 29.90 in 10.0 mi SE 13.8 mph - N/A   Scattered Clouds
8:15 PM 79.2 °F - 74.3 °F 85% 29.90 in 10.0 mi SE 8.1 mph - N/A   Clear
8:35 PM 78.4 °F - 73.6 °F 85% 29.91 in 10.0 mi SE 6.9 mph - N/A   Clear
8:55 PM 78.3 °F - 73.6 °F 85% 29.92 in 10.0 mi SSE 5.8 mph - N/A   Clear
9:15 PM 77.5 °F - 73.6 °F 88% 29.92 in 10.0 mi SSE 4.6 mph - N/A   Clear
9:35 PM 77.4 °F - 73.8 °F 89% 29.93 in 10.0 mi SE 3.5 mph - N/A   Clear
9:55 PM 77.2 °F - 73.9 °F 90% 29.94 in 10.0 mi SSE 3.5 mph - N/A   Clear
10:35 PM 77.2 °F - 74.3 °F 91% 29.96 in 10.0 mi Calm Calm - N/A   Scattered Clouds
10:55 PM 77.0 °F - 73.9 °F 90% 29.95 in 10.0 mi ESE 3.5 mph - N/A   Scattered Clouds
11:15 PM 77.2 °F - 74.1 °F 90% 29.95 in 10.0 mi Calm Calm - N/A   Clear
11:35 PM 77.0 °F - 73.8 °F 90% 29.95 in 10.0 mi SSE 3.5 mph - N/A   Clear
11:55 PM 77.2 °F - 74.1 °F 90% 29.96 in 10.0 mi South 3.5 mph - N/A   Clear